Location: ?????
(31.8092°N, 35.2590°E)
Time: 20:43:49
(UTC+00:00)

N. Korean satellite - Pass Details

Date: 24 September 2021
Orbit: 450 x 495 km, 97.3° (Epoch: 25 October)

Event Time Altitude Azimuth Distance (km) Brightness Sun altitude
Rises 02:28:40 0° 19° (NNE) 2,527 10.6 -13.5°
Reaches altitude 10° 02:30:47 10° 27° (NNE) 1,653 9.7 -13.0°
Maximum altitude 02:34:11 42° 99° (E) 702 7.9 -12.3°
Drops below altitude 10° 02:37:35 10° 171° (S) 1,665 9.3 -11.6°
Sets 02:39:44 0° 179° (S) 2,548 10.2 -11.2°
